Hourly Data Report for December 10, 2020

FORT GOOD HOPE CS
NORTHWEST TERRITORIES
Current Station Operator: ECCC - MSC

66°14'32.044" N
128°38'39.081" W
81.70 m
2201450
71491
ZGH

Download Data

Hourly Data (December 2020)
Hourly Data Report for December 10, 2020
TIME
LST
Temp Definition
°C
Dew Point Definition
°C
Rel Hum Definition
%
Precip. Amount Definition
mm

Wind Dir Definition
10's deg

Wind Spd Definition
km/h
Visibility Definition
km
Stn Press Definition
kPa
Hmdx Definition


Wind Chill Definition


Weather Definition


00:00 -22.4 -25.0 79 0.0 7 3   101.58   -25 LegendNANA
01:00 -23.2 -25.8 79 0.0 4 4   101.67   -27 LegendNANA
02:00 -24.4 -27.1 79 0.0 10 6   101.69   -30 LegendNANA
03:00 -25.2 -27.9 78 0.0 10 3   101.71   -28 LegendNANA
04:00 -25.5 -28.3 77 0.0 13 2   101.72   -28 LegendNANA
05:00 -24.8 -27.6 77 0.0 13 3   101.71   -28 LegendNANA
06:00 -23.5 -26.2 78 0.0 5 4   101.72   -27 LegendNANA
07:00 -22.4 -25.0 79 0.0 3 3   101.71   -25 LegendNANA
08:00 -21.5 -24.1 79 0.0 5 5   101.68   -26 LegendNANA
09:00 -21.4 -24.1 79 0.0 5 5   101.72   -26 LegendNANA
10:00 -21.5 -24.1 79 0.1 4 5   101.72   -26 LegendNANA
11:00 -21.0 -23.6 80 0.2 5 3   101.77   -24 LegendNANA
12:00 -20.5 -23.1 80 0.4 6 4   101.77   -24 LegendNANA
13:00 -20.1 -22.7 80 0.5 5 5   101.79   -24 LegendNANA
14:00 -19.8 -22.4 80 0.4 5 5   101.82   -24 LegendNANA
15:00 -19.8 -22.4 80 0.2 6 6   101.83   -25 LegendNANA
16:00 -19.6 -22.2 80 0.2 6 4   101.83   -23 LegendNANA
17:00 -19.4 -22.0 80 0.2 7 7   101.83   -25 LegendNANA
18:00 -19.4 -22.0 80 0.1 6 5   101.82   -24 LegendNANA
19:00 -19.2 -21.7 80 0.0 7 3   101.82   -22 LegendNANA
20:00 -19.2 -21.8 80 0.1 7 5   101.84   -23 LegendNANA
21:00 -19.2 -21.9 80 0.1 7 6   101.85   -24 LegendNANA
22:00 -19.3 -22.0 79 0.0 8 9   101.84   -26 LegendNANA
23:00 -19.2 -21.9 79 0.0 7 8   101.86   -25 LegendNANA

Notes on Data Quality.

Legend

  • E = Estimated
  • M = Missing
  • NA = Not Available*
  • [empty] = Indicates an unobserved value
Date modified: